| time (UTC) | temp F | wind direction | speed MPH | gust MPH | rain 1hr in | rain 24hr in | rain mn in | humidity % | barometer mb |
| 20260506050733 | 56 | 248 | 0.0 | 1.0 | 0.00 | 0.09 | 0.06 | 91 | 1011.4 |
| 20260506050231 | 56 | 248 | 0.0 | 2.0 | 0.00 | 0.09 | 0.06 | 91 | 1011.5 |
| 20260506044717 | 56 | 323 | 0.0 | 0.0 | 0.00 | 0.09 | 0.06 | 92 | 1011.5 |
| 20260506044211 | 56 | 323 | 0.0 | 1.0 | 0.00 | 0.09 | 0.06 | 92 | 1011.3 |
| 20260506043712 | 56 | 323 | 0.0 | 2.0 | 0.02 | 0.09 | 0.06 | 92 | 1011.3 |
| 20260506043211 | 56 | 323 | 1.0 | 3.0 | 0.02 | 0.09 | 0.06 | 92 | 1011.2 |
| 20260506042711 | 55 | 323 | 1.0 | 3.0 | 0.04 | 0.09 | 0.06 | 91 | 1011.0 |
| 20260506042212 | 55 | 10 | 2.0 | 7.0 | 0.05 | 0.09 | 0.06 | 91 | 1010.9 |
| 20260506041711 | 55 | 22 | 2.0 | 7.0 | 0.05 | 0.09 | 0.06 | 91 | 1010.7 |
| 20260506041215 | 55 | 28 | 2.0 | 4.0 | 0.06 | 0.09 | 0.06 | 91 | 1010.8 |
| 20260506040713 | 55 | 30 | 2.0 | 4.0 | 0.06 | 0.09 | 0.06 | 91 | 1010.8 |
| 20260506040209 | 55 | 336 | 2.0 | 5.0 | 0.06 | 0.09 | 0.06 | 91 | 1010.9 |
| 20260506035707 | 55 | 42 | 2.0 | 5.0 | 0.06 | 0.09 | 0.06 | 91 | 1010.8 |
| 20260506035208 | 55 | 20 | 2.0 | 5.0 | 0.06 | 0.09 | 0.06 | 91 | 1010.7 |
| 20260506034708 | 55 | 30 | 2.0 | 4.0 | 0.06 | 0.09 | 0.06 | 91 | 1010.9 |
| 20260506034205 | 55 | 0 | 2.0 | 4.0 | 0.06 | 0.09 | 0.06 | 91 | 1010.9 |
| 20260506033704 | 55 | 355 | 1.0 | 4.0 | 0.04 | 0.07 | 0.04 | 91 | 1011.0 |
| 20260506033205 | 56 | 206 | 1.0 | 3.0 | 0.03 | 0.06 | 0.03 | 91 | 1011.1 |
| 20260506032703 | 56 | 206 | 2.0 | 7.0 | 0.02 | 0.05 | 0.02 | 90 | 1011.3 |
| 20260506031703 | 56 | 242 | 0.0 | 3.0 | 0.01 | 0.04 | 0.00 | 91 | 1011.6 |
| 20260506031203 | 55 | 346 | 0.0 | 0.0 | 0.00 | 0.03 | 0.00 | 90 | 1011.6 |
| 20260506030659 | 55 | 346 | 0.0 | 0.0 | 0.00 | 0.03 | 0.00 | 90 | 1011.5 |
| 20260506030154 | 55 | 346 | 0.0 | 0.0 | 0.00 | 0.03 | 0.00 | 90 | 1011.4 |
| 20260506025148 | 55 | 346 | 0.0 | 0.0 | 0.00 | 0.03 | 0.00 | 90 | 1011.4 |
| 20260506024645 | 55 | 346 | 0.0 | 0.0 | 0.00 | 0.03 | 0.00 | 91 | 1011.5 |
| 20260506024145 | 55 | 346 | 0.0 | 3.0 | 0.00 | 0.03 | 0.00 | 91 | 1011.6 |
| 20260506023643 | 55 | 346 | 1.0 | 3.0 | 0.00 | 0.03 | 0.00 | 91 | 1011.6 |
| 20260506023139 | 55 | 342 | 2.0 | 4.0 | 0.00 | 0.03 | 0.00 | 91 | 1011.6 |
| 20260506022640 | 55 | 346 | 2.0 | 4.0 | 0.00 | 0.03 | 0.00 | 91 | 1011.7 |
| 20260506022140 | 55 | 346 | 1.0 | 3.0 | 0.00 | 0.03 | 0.00 | 91 | 1011.7 |
| 20260506021639 | 55 | 346 | 1.0 | 4.0 | 0.00 | 0.03 | 0.00 | 91 | 1011.7 |
| 20260506021139 | 55 | 347 | 1.0 | 4.0 | 0.00 | 0.03 | 0.00 | 91 | 1011.7 |
| 20260506020638 | 55 | 346 | 2.0 | 3.0 | 0.00 | 0.03 | 0.00 | 90 | 1011.9 |
| 20260506020139 | 55 | 344 | 1.0 | 3.0 | 0.00 | 0.03 | 0.00 | 90 | 1011.8 |
| 20260506015134 | 55 | 345 | 2.0 | 5.0 | 0.00 | 0.03 | 0.00 | 90 | 1012.0 |
| 20260506014130 | 55 | 15 | 2.0 | 5.0 | 0.00 | 0.03 | 0.00 | 90 | 1012.0 |
| 20260506013631 | 55 | 22 | 2.0 | 5.0 | 0.00 | 0.03 | 0.00 | 90 | 1012.0 |
| 20260506013131 | 55 | 351 | 2.0 | 5.0 | 0.00 | 0.03 | 0.00 | 91 | 1012.1 |
| 20260506012631 | 55 | 340 | 3.0 | 5.0 | 0.00 | 0.03 | 0.00 | 91 | 1012.0 |
| 20260506012127 | 55 | 355 | 2.0 | 5.0 | 0.00 | 0.03 | 0.00 | 91 | 1012.1 |
| 20260506011620 | 55 | 355 | 1.0 | 4.0 | 0.00 | 0.03 | 0.00 | 91 | 1012.2 |
| 20260506011123 | 55 | 30 | 1.0 | 3.0 | 0.00 | 0.03 | 0.00 | 91 | 1012.2 |
| 20260506010622 | 55 | 24 | 2.0 | 4.0 | 0.00 | 0.03 | 0.00 | 91 | 1012.2 |
| 20260506010121 | 55 | 20 | 2.0 | 5.0 | 0.00 | 0.03 | 0.00 | 90 | 1012.1 |
| 20260506005619 | 55 | 9 | 2.0 | 5.0 | 0.00 | 0.03 | 0.00 | 91 | 1012.2 |
| 20260506005119 | 55 | 17 | 2.0 | 5.0 | 0.00 | 0.03 | 0.00 | 91 | 1012.2 |
| 20260506004620 | 55 | 9 | 1.0 | 3.0 | 0.00 | 0.03 | 0.00 | 90 | 1012.2 |
| 20260506004120 | 55 | 9 | 0.0 | 3.0 | 0.00 | 0.03 | 0.00 | 90 | 1012.3 |
| 20260506003622 | 55 | 9 | 1.0 | 3.0 | 0.00 | 0.03 | 0.00 | 90 | 1012.4 |
| 20260506003119 | 55 | 9 | 1.0 | 3.0 | 0.00 | 0.03 | 0.00 | 90 | 1012.3 |
| 20260506002116 | 55 | 355 | 2.0 | 4.0 | 0.00 | 0.03 | 0.00 | 90 | 1012.3 |
| 20260506001615 | 55 | 345 | 1.0 | 3.0 | 0.00 | 0.03 | 0.00 | 90 | 1012.3 |
| 20260506001114 | 55 | 344 | 1.0 | 3.0 | 0.00 | 0.03 | 0.00 | 90 | 1012.3 |
| 20260506000615 | 55 | 343 | 1.0 | 3.0 | 0.00 | 0.03 | 0.00 | 90 | 1012.3 |
| 20260506000115 | 55 | 342 | 2.0 | 3.0 | 0.00 | 0.03 | 0.00 | 90 | 1012.4 |
| 20260505235616 | 56 | 30 | 1.0 | 3.0 | 0.00 | 0.03 | 0.00 | 90 | 1012.4 |
| 20260505235115 | 56 | 22 | 0.0 | 2.0 | 0.00 | 0.03 | 0.00 | 90 | 1012.4 |
| 20260505234615 | 56 | 22 | 1.0 | 3.0 | 0.00 | 0.03 | 0.00 | 90 | 1012.4 |
| 20260505234115 | 56 | 21 | 1.0 | 4.0 | 0.00 | 0.03 | 0.00 | 90 | 1012.4 |
| 20260505233611 | 56 | 16 | 1.0 | 5.0 | 0.00 | 0.03 | 0.00 | 90 | 1012.3 |
| 20260505233111 | 56 | 32 | 2.0 | 5.0 | 0.00 | 0.03 | 0.00 | 90 | 1012.3 |
| 20260505232612 | 56 | 338 | 2.0 | 4.0 | 0.00 | 0.03 | 0.00 | 90 | 1012.4 |
| 20260505232110 | 56 | 39 | 3.0 | 6.0 | 0.00 | 0.03 | 0.00 | 90 | 1012.5 |
| 20260505231609 | 56 | 60 | 3.0 | 8.0 | 0.00 | 0.03 | 0.00 | 90 | 1012.5 |
| 20260505231108 | 56 | 10 | 3.0 | 8.0 | 0.00 | 0.03 | 0.00 | 90 | 1012.5 |
| 20260505230605 | 56 | 51 | 3.0 | 8.0 | 0.00 | 0.03 | 0.00 | 90 | 1012.6 |
| 20260505225602 | 55 | 13 | 3.0 | 5.0 | 0.00 | 0.03 | 0.00 | 90 | 1012.7 |
| 20260505225103 | 56 | 0 | 3.0 | 5.0 | 0.00 | 0.03 | 0.00 | 90 | 1012.7 |
| 20260505224602 | 56 | 16 | 3.0 | 8.0 | 0.00 | 0.03 | 0.00 | 90 | 1012.8 |
| 20260505224102 | 56 | 49 | 3.0 | 8.0 | 0.00 | 0.03 | 0.00 | 90 | 1012.9 |
| 20260505223603 | 56 | 355 | 3.0 | 5.0 | 0.00 | 0.03 | 0.00 | 90 | 1012.9 |
| 20260505223102 | 56 | 44 | 3.0 | 6.0 | 0.00 | 0.03 | 0.00 | 90 | 1013.0 |
| 20260505222102 | 56 | 19 | 4.0 | 11.0 | 0.00 | 0.03 | 0.00 | 90 | 1013.1 |
| 20260505221558 | 56 | 325 | 4.0 | 11.0 | 0.00 | 0.03 | 0.00 | 90 | 1013.1 |
| 20260505221052 | 56 | 0 | 4.0 | 8.0 | 0.00 | 0.03 | 0.00 | 90 | 1013.3 |
| 20260505220553 | 56 | 0 | 4.0 | 9.0 | 0.00 | 0.03 | 0.00 | 90 | 1013.3 |
| 20260505220053 | 56 | 19 | 4.0 | 9.0 | 0.00 | 0.03 | 0.00 | 90 | 1013.2 |
| 20260505215552 | 56 | 40 | 5.0 | 10.0 | 0.00 | 0.03 | 0.03 | 90 | 1013.2 |
| 20260505214552 | 56 | 340 | 4.0 | 9.0 | 0.00 | 0.03 | 0.03 | 90 | 1013.3 |
| 20260505214053 | 56 | 22 | 4.0 | 9.0 | 0.00 | 0.03 | 0.03 | 90 | 1013.2 |
| 20260505213553 | 56 | 16 | 4.0 | 8.0 | 0.00 | 0.03 | 0.03 | 90 | 1013.3 |
| 20260505212552 | 56 | 355 | 4.0 | 8.0 | 0.00 | 0.03 | 0.03 | 89 | 1013.3 |
| 20260505212053 | 56 | 340 | 4.0 | 8.0 | 0.00 | 0.03 | 0.03 | 89 | 1013.4 |
| 20260505211551 | 56 | 24 | 3.0 | 8.0 | 0.00 | 0.03 | 0.03 | 89 | 1013.5 |
| 20260505211045 | 56 | 355 | 4.0 | 8.0 | 0.00 | 0.03 | 0.03 | 89 | 1013.5 |
| 20260505210034 | 56 | 5 | 3.0 | 8.0 | 0.00 | 0.03 | 0.03 | 89 | 1013.5 |
| 20260505205531 | 56 | 50 | 4.0 | 9.0 | 0.00 | 0.03 | 0.03 | 89 | 1013.5 |
| 20260505204532 | 56 | 29 | 4.0 | 9.0 | 0.00 | 0.03 | 0.03 | 89 | 1013.5 |
| 20260505204032 | 56 | 64 | 4.0 | 9.0 | 0.00 | 0.03 | 0.03 | 89 | 1013.4 |
| 20260505203532 | 56 | 5 | 5.0 | 10.0 | 0.00 | 0.03 | 0.03 | 89 | 1013.3 |
| 20260505202532 | 56 | 48 | 5.0 | 12.0 | 0.00 | 0.03 | 0.03 | 89 | 1013.4 |
| 20260505202033 | 56 | 53 | 4.0 | 12.0 | 0.00 | 0.03 | 0.03 | 89 | 1013.5 |
| 20260505201533 | 56 | 43 | 3.0 | 8.0 | 0.00 | 0.03 | 0.03 | 89 | 1013.5 |
| 20260505201032 | 56 | 16 | 4.0 | 10.0 | 0.00 | 0.03 | 0.03 | 89 | 1013.4 |
| 20260505200533 | 56 | 355 | 5.0 | 10.0 | 0.00 | 0.03 | 0.03 | 89 | 1013.5 |
| 20260505200031 | 56 | 32 | 5.0 | 10.0 | 0.00 | 0.03 | 0.03 | 89 | 1013.4 |
| 20260505195531 | 56 | 28 | 4.0 | 10.0 | 0.00 | 0.03 | 0.03 | 89 | 1013.4 |
| 20260505195032 | 56 | 315 | 5.0 | 9.0 | 0.00 | 0.03 | 0.03 | 90 | 1013.4 |
| 20260505194530 | 56 | 317 | 5.0 | 9.0 | 0.00 | 0.03 | 0.03 | 89 | 1013.5 |
| 20260505194031 | 56 | 355 | 4.0 | 10.0 | 0.00 | 0.03 | 0.03 | 90 | 1013.4 |
| 20260505193531 | 56 | 331 | 5.0 | 10.0 | 0.00 | 0.03 | 0.03 | 89 | 1013.4 |
| 20260505193032 | 56 | 349 | 5.0 | 10.0 | 0.00 | 0.03 | 0.03 | 89 | 1013.3 |
| 20260505192530 | 56 | 0 | 4.0 | 10.0 | 0.00 | 0.03 | 0.03 | 89 | 1013.4 |
| 20260505192031 | 56 | 342 | 4.0 | 8.0 | 0.00 | 0.03 | 0.03 | 89 | 1013.4 |
| 20260505191530 | 56 | 34 | 4.0 | 9.0 | 0.00 | 0.03 | 0.03 | 89 | 1013.4 |
| 20260505191031 | 56 | 33 | 4.0 | 9.0 | 0.00 | 0.03 | 0.03 | 89 | 1013.5 |
| 20260505190531 | 56 | 5 | 4.0 | 8.0 | 0.00 | 0.03 | 0.03 | 89 | 1013.3 |
| 20260505185532 | 56 | 5 | 4.0 | 8.0 | 0.00 | 0.03 | 0.03 | 89 | 1013.3 |
| 20260505185030 | 56 | 35 | 4.0 | 10.0 | 0.00 | 0.03 | 0.03 | 89 | 1013.2 |
| 20260505184531 | 56 | 36 | 4.0 | 10.0 | 0.00 | 0.03 | 0.03 | 89 | 1013.3 |
| 20260505184032 | 56 | 42 | 4.0 | 9.0 | 0.00 | 0.03 | 0.03 | 89 | 1013.2 |
| 20260505183531 | 56 | 16 | 4.0 | 9.0 | 0.00 | 0.03 | 0.03 | 89 | 1013.2 |
| 20260505183032 | 57 | 17 | 4.0 | 7.0 | 0.00 | 0.03 | 0.03 | 89 | 1013.3 |
| 20260505182530 | 57 | 5 | 4.0 | 7.0 | 0.00 | 0.03 | 0.03 | 89 | 1013.2 |
| 20260505182031 | 57 | 41 | 3.0 | 7.0 | 0.00 | 0.03 | 0.03 | 89 | 1013.2 |
| 20260505181025 | 57 | 31 | 5.0 | 10.0 | 0.00 | 0.03 | 0.03 | 89 | 1013.1 |
| 20260505180521 | 57 | 17 | 4.0 | 10.0 | 0.00 | 0.03 | 0.03 | 89 | 1013.0 |
| 20260505180013 | 57 | 329 | 4.0 | 9.0 | 0.00 | 0.03 | 0.03 | 89 | 1013.1 |
| 20260505175507 | 57 | 41 | 4.0 | 10.0 | 0.00 | 0.03 | 0.03 | 89 | 1013.0 |
| 20260505175007 | 57 | 60 | 4.0 | 11.0 | 0.00 | 0.03 | 0.03 | 89 | 1013.0 |
| 20260505174508 | 57 | 23 | 4.0 | 11.0 | 0.00 | 0.03 | 0.03 | 89 | 1013.0 |
| 20260505174007 | 57 | 9 | 4.0 | 9.0 | 0.00 | 0.03 | 0.03 | 89 | 1012.9 |
| 20260505173505 | 57 | 64 | 4.0 | 9.0 | 0.00 | 0.03 | 0.03 | 89 | 1013.1 |
| 20260505173006 | 57 | 56 | 4.0 | 9.0 | 0.00 | 0.03 | 0.03 | 89 | 1013.1 |
| 20260505172506 | 57 | 109 | 4.0 | 9.0 | 0.00 | 0.03 | 0.03 | 89 | 1013.2 |
| 20260505172005 | 57 | 54 | 4.0 | 12.0 | 0.00 | 0.03 | 0.03 | 89 | 1013.1 |
| 20260505171507 | 57 | 52 | 5.0 | 12.0 | 0.00 | 0.03 | 0.03 | 89 | 1013.0 |
| 20260505171006 | 57 | 41 | 5.0 | 10.0 | 0.00 | 0.03 | 0.03 | 88 | 1012.9 |
| 20260505170506 | 57 | 42 | 4.0 | 9.0 | 0.00 | 0.03 | 0.03 | 88 | 1012.9 |
| 20260505170005 | 57 | 22 | 4.0 | 10.0 | 0.00 | 0.03 | 0.03 | 88 | 1012.9 |
| 20260505165506 | 57 | 16 | 4.0 | 10.0 | 0.00 | 0.03 | 0.03 | 88 | 1012.9 |
| 20260505165004 | 57 | 351 | 4.0 | 10.0 | 0.00 | 0.03 | 0.03 | 88 | 1013.0 |
| 20260505164504 | 57 | 34 | 5.0 | 14.0 | 0.00 | 0.03 | 0.03 | 88 | 1013.0 |
| 20260505164003 | 58 | 11 | 5.0 | 14.0 | 0.00 | 0.03 | 0.03 | 88 | 1013.0 |
| 20260505163503 | 58 | 40 | 4.0 | 9.0 | 0.00 | 0.03 | 0.03 | 88 | 1013.0 |
| 20260505163002 | 58 | 5 | 5.0 | 10.0 | 0.00 | 0.03 | 0.03 | 88 | 1013.0 |
| 20260505162501 | 58 | 13 | 5.0 | 12.0 | 0.00 | 0.03 | 0.03 | 88 | 1013.0 |
| 20260505161956 | 58 | 29 | 5.0 | 12.0 | 0.00 | 0.03 | 0.03 | 88 | 1013.0 |
| 20260505160442 | 58 | 55 | 5.0 | 10.0 | 0.00 | 0.03 | 0.03 | 88 | 1013.1 |
| 20260505152938 | 60 | 0 | 3.0 | 9.0 | 0.00 | 0.03 | 0.03 | 85 | 1013.3 |
| 20260505152435 | 60 | 5 | 3.0 | 5.0 | 0.00 | 0.03 | 0.03 | 85 | 1013.2 |
| 20260505151935 | 60 | 12 | 3.0 | 6.0 | 0.00 | 0.03 | 0.03 | 85 | 1013.2 |
| 20260505150935 | 60 | 56 | 2.0 | 6.0 | 0.00 | 0.03 | 0.03 | 85 | 1013.2 |
| 20260505150435 | 60 | 57 | 3.0 | 6.0 | 0.00 | 0.03 | 0.03 | 85 | 1013.1 |
| 20260505124935 | 60 | 96 | 1.0 | 4.0 | 0.00 | 0.03 | 0.03 | 84 | 1014.1 |
| 20260505123931 | 60 | 76 | 2.0 | 4.0 | 0.00 | 0.03 | 0.03 | 84 | 1014.1 |
| 20260505123431 | 60 | 64 | 2.0 | 4.0 | 0.00 | 0.03 | 0.03 | 84 | 1014.1 |
| 20260505122930 | 60 | 30 | 2.0 | 6.0 | 0.00 | 0.03 | 0.03 | 84 | 1014.1 |
| 20260505122431 | 60 | 28 | 2.0 | 6.0 | 0.00 | 0.03 | 0.03 | 83 | 1014.2 |
| 20260505121930 | 60 | 102 | 2.0 | 7.0 | 0.00 | 0.03 | 0.03 | 83 | 1014.2 |
| 20260505121432 | 60 | 91 | 3.0 | 8.0 | 0.00 | 0.03 | 0.03 | 82 | 1014.2 |
| 20260505120427 | 60 | 61 | 2.0 | 7.0 | 0.00 | 0.03 | 0.03 | 82 | 1014.3 |
| 20260505115919 | 60 | 102 | 2.0 | 7.0 | 0.00 | 0.03 | 0.03 | 81 | 1014.2 |
| 20260505115414 | 60 | 50 | 3.0 | 8.0 | 0.00 | 0.03 | 0.03 | 81 | 1014.2 |
| 20260505114906 | 60 | 107 | 3.0 | 8.0 | 0.00 | 0.03 | 0.03 | 80 | 1014.3 |
| 20260505114406 | 60 | 98 | 3.0 | 8.0 | 0.00 | 0.03 | 0.03 | 80 | 1014.3 |
| 20260505113904 | 60 | 116 | 5.0 | 10.0 | 0.00 | 0.03 | 0.03 | 80 | 1014.3 |
| 20260505113406 | 60 | 88 | 4.0 | 10.0 | 0.01 | 0.03 | 0.03 | 79 | 1014.2 |
| 20260505112906 | 60 | 53 | 4.0 | 10.0 | 0.01 | 0.03 | 0.03 | 80 | 1014.3 |
| 20260505112410 | 60 | 104 | 5.0 | 10.0 | 0.01 | 0.03 | 0.03 | 80 | 1014.2 |
| 20260505111905 | 60 | 113 | 5.0 | 10.0 | 0.01 | 0.03 | 0.03 | 80 | 1014.2 |
| 20260505111404 | 60 | 126 | 5.0 | 10.0 | 0.01 | 0.03 | 0.03 | 79 | 1014.1 |
| 20260505110904 | 60 | 117 | 5.0 | 12.0 | 0.01 | 0.03 | 0.03 | 79 | 1014.3 |
| 20260505110405 | 60 | 25 | 3.0 | 12.0 | 0.01 | 0.03 | 0.03 | 79 | 1014.3 |
| 20260505101903 | 60 | 126 | 2.0 | 7.0 | 0.00 | 0.02 | 0.02 | 77 | 1014.6 |
| 20260505101402 | 60 | 115 | 1.0 | 7.0 | 0.00 | 0.02 | 0.02 | 77 | 1014.7 |
| 20260505100904 | 60 | 142 | 1.0 | 3.0 | 0.00 | 0.02 | 0.02 | 78 | 1014.8 |
| 20260505100402 | 60 | 142 | 1.0 | 3.0 | 0.01 | 0.02 | 0.02 | 79 | 1014.9 |
| 20260505095903 | 60 | 146 | 1.0 | 4.0 | 0.02 | 0.02 | 0.02 | 80 | 1014.9 |
| 20260505094902 | 60 | 90 | 2.0 | 4.0 | 0.02 | 0.02 | 0.02 | 79 | 1014.8 |
| 20260505094402 | 60 | 115 | 2.0 | 4.0 | 0.02 | 0.02 | 0.02 | 80 | 1014.8 |
| 20260505093903 | 60 | 119 | 1.0 | 4.0 | 0.02 | 0.02 | 0.02 | 80 | 1014.6 |
| 20260505093402 | 60 | 101 | 1.0 | 3.0 | 0.02 | 0.02 | 0.02 | 80 | 1014.6 |
| 20260505092903 | 60 | 90 | 1.0 | 3.0 | 0.02 | 0.02 | 0.02 | 81 | 1014.6 |
| 20260505092403 | 60 | 149 | 0.0 | 3.0 | 0.02 | 0.02 | 0.02 | 81 | 1014.6 |
| 20260505091403 | 60 | 150 | 0.0 | 2.0 | 0.02 | 0.02 | 0.02 | 80 | 1014.6 |
| 20260505090902 | 60 | 163 | 0.0 | 1.0 | 0.02 | 0.02 | 0.02 | 80 | 1014.7 |
| 20260505090402 | 60 | 163 | 0.0 | 1.0 | 0.02 | 0.02 | 0.02 | 79 | 1014.7 |
| 20260505085903 | 60 | 163 | 0.0 | 0.0 | 0.01 | 0.00 | 0.01 | 78 | 1014.6 |
| 20260505085358 | 60 | 163 | 0.0 | 0.0 | 0.01 | 0.00 | 0.01 | 78 | 1014.6 |
| 20260505084358 | 60 | 163 | 0.0 | 0.0 | 0.00 | 0.00 | 0.00 | 78 | 1014.6 |
| 20260505083358 | 60 | 163 | 0.0 | 0.0 | 0.00 | 0.00 | 0.00 | 78 | 1014.6 |
| 20260505082356 | 60 | 163 | 0.0 | 0.0 | 0.00 | 0.00 | 0.00 | 76 | 1014.5 |
| 20260505081856 | 60 | 163 | 0.0 | 0.0 | 0.00 | 0.00 | 0.00 | 76 | 1014.5 |
| 20260505081357 | 60 | 163 | 0.0 | 0.0 | 0.00 | 0.00 | 0.00 | 76 | 1014.4 |
| 20260505080856 | 60 | 163 | 0.0 | 0.0 | 0.00 | 0.00 | 0.00 | 75 | 1014.4 |
| 20260505080356 | 60 | 163 | 0.0 | 2.0 | 0.00 | 0.00 | 0.00 | 75 | 1014.4 |
| 20260505075856 | 60 | 163 | 0.0 | 2.0 | 0.00 | 0.00 | 0.00 | 77 | 1014.5 |
| 20260505075354 | 60 | 163 | 0.0 | 2.0 | 0.00 | 0.00 | 0.00 | 77 | 1014.6 |
| 20260505074853 | 60 | 163 | 0.0 | 2.0 | 0.00 | 0.00 | 0.00 | 78 | 1014.6 |
| 20260505074351 | 60 | 164 | 0.0 | 2.0 | 0.00 | 0.00 | 0.00 | 78 | 1014.6 |
| 20260505073850 | 60 | 164 | 0.0 | 2.0 | 0.00 | 0.00 | 0.00 | 77 | 1014.6 |
| 20260505073350 | 60 | 177 | 0.0 | 2.0 | 0.00 | 0.00 | 0.00 | 77 | 1014.5 |
| 20260505072854 | 60 | 178 | 0.0 | 0.0 | 0.00 | 0.00 | 0.00 | 78 | 1014.5 |
| 20260505072350 | 60 | 178 | 0.0 | 1.0 | 0.00 | 0.00 | 0.00 | 78 | 1014.4 |
| 20260505071850 | 60 | 178 | 0.0 | 2.0 | 0.00 | 0.00 | 0.00 | 78 | 1014.4 |
| 20260505071350 | 60 | 176 | 0.0 | 2.0 | 0.00 | 0.00 | 0.00 | 78 | 1014.4 |
| 20260505070850 | 59 | 192 | 0.0 | 1.0 | 0.00 | 0.00 | 0.00 | 78 | 1014.4 |
| 20260505070350 | 59 | 192 | 0.0 | 3.0 | 0.00 | 0.00 | 0.00 | 78 | 1014.3 |
| 20260505065849 | 59 | 192 | 0.0 | 3.0 | 0.00 | 0.00 | 0.00 | 79 | 1014.3 |
| 20260505065351 | 59 | 163 | 0.0 | 0.0 | 0.00 | 0.00 | 0.00 | 79 | 1014.2 |
| 20260505064846 | 59 | 163 | 1.0 | 3.0 | 0.00 | 0.00 | 0.00 | 80 | 1014.2 |
| 20260505064346 | 59 | 163 | 1.0 | 3.0 | 0.00 | 0.00 | 0.00 | 81 | 1014.1 |
| 20260505063346 | 59 | 144 | 0.0 | 3.0 | 0.00 | 0.00 | 0.00 | 83 | 1014.2 |
| 20260505062846 | 59 | 147 | 1.0 | 4.0 | 0.00 | 0.00 | 0.00 | 83 | 1014.1 |
| 20260505062347 | 59 | 201 | 1.0 | 5.0 | 0.00 | 0.00 | 0.00 | 84 | 1014.2 |
| 20260505061850 | 59 | 169 | 1.0 | 5.0 | 0.00 | 0.00 | 0.00 | 85 | 1014.1 |
| 20260505061346 | 59 | 144 | 2.0 | 4.0 | 0.00 | 0.00 | 0.00 | 85 | 1014.0 |
| 20260505060346 | 58 | 152 | 2.0 | 4.0 | 0.00 | 0.00 | 0.00 | 86 | 1014.0 |
| 20260505055844 | 58 | 120 | 2.0 | 6.0 | 0.00 | 0.00 | 0.00 | 87 | 1013.9 |
| 20260505055344 | 58 | 122 | 1.0 | 6.0 | 0.00 | 0.00 | 0.00 | 87 | 1013.9 |